星链-5802 (STARLINK-5802 )

导读

STARLINK-5802是美国太空探索技术公司(SpaceX)星链(Starlink)卫星互联网项目中的一颗卫星,于2023年5月14日发射升空,属于星链项目批次部署卫星,其任务是为全球提供高速互联网接入服务,尤其覆盖偏远地区与网络基础设施薄弱区域,支撑星链低轨卫星星座组网,服务通信、导航等多场景应用。

基本信息
目录编号:
56552
目录名称:
STARLINK-5802
国际标识:
2023-065BB
轨道中心:
EARTH
卫星名称:
星链-5802
卫星全名:
星链-5802 (STARLINK-5802 )
卫星状态:
在轨 (已飞行1128 天)
发射日期:
2023-05-14 UTC
国别 :
美国 (US)
星等 :
--
轨道信息
数据来源 国际轨道数据
星历时间: 2026-06-14T16:29:22+0800
16小时前
查看轨道信息
半长轴: 6861.152km
偏心率: 0.0001347
轨道倾角: 43.006°
近地点辐角 268.282°
升交点赤经 37.842°
平近点角 91.787°
近地点: 482.09km
远地点: 483.94km
周期: 94.266分钟
每日圈数: 15.275914
详细信息
固有亮度:
5
最大亮度:
2.5
卫星平台:
Starlink v1.5
覆盖范围:
全球
运营商:
太空探索技术公司
运营商所在国:
美国
制造商(研发单位):
太空探索技术公司
制造商所在国:
美国
使用方式:
暂无
卫星简介
星链(Starlink)计划是由太空探索技术公司(SpaceX)提出的一个巨型低轨卫星互联网星座项目,计划在2019年至2024年间在太空搭建由约1.2万颗卫星组成的“星链”网络,其中1584颗将部署在地球上空550千米处的近地轨道,并从2020年开始工作。该卫星仍在工作。
2D轨道图
3D轨道图
轨道高度分析图
轨道倾角分析图
轨道综合分析图
查看轨道综合分析图